TimeEST,TemperatureF,Dew PointF,Humidity,Sea Level PressureIn,VisibilityMPH,Wind Direction,Wind SpeedMPH,Gust SpeedMPH,PrecipitationIn,Events,Conditions,WindDirDegrees,DateUTC
12:54 AM,36.0,19.9,52,30.04,10.0,SSW,4.6,-,N/A,,Clear,210,2012-11-26 05:54:00
1:54 AM,36.0,19.9,52,30.05,10.0,SSW,3.5,-,N/A,,Clear,210,2012-11-26 06:54:00
2:54 AM,33.1,19.9,59,30.07,10.0,SSW,3.5,-,N/A,,Clear,200,2012-11-26 07:54:00
3:54 AM,30.9,21.9,69,30.08,10.0,Calm,Calm,-,N/A,,Clear,0,2012-11-26 08:54:00
4:54 AM,30.0,21.9,72,30.10,10.0,Calm,Calm,-,N/A,,Clear,0,2012-11-26 09:54:00
5:54 AM,33.1,21.0,61,30.12,10.0,SSW,3.5,-,N/A,,Clear,210,2012-11-26 10:54:00
6:54 AM,27.0,21.0,78,30.14,10.0,Calm,Calm,-,N/A,,Clear,0,2012-11-26 11:54:00
7:54 AM,34.0,24.1,67,30.16,10.0,Calm,Calm,-,N/A,,Clear,0,2012-11-26 12:54:00
8:54 AM,46.0,23.0,40,30.17,10.0,SW,4.6,-,N/A,,Clear,220,2012-11-26 13:54:00
9:54 AM,51.1,21.9,32,30.19,10.0,Variable,4.6,-,N/A,,Clear,0,2012-11-26 14:54:00
10:54 AM,55.9,21.0,26,30.19,10.0,Variable,5.8,-,N/A,,Clear,0,2012-11-26 15:54:00
11:54 AM,57.0,21.9,26,30.17,10.0,Variable,4.6,-,N/A,,Clear,0,2012-11-26 16:54:00
12:54 PM,59.0,23.0,25,30.15,10.0,WSW,5.8,-,N/A,,Clear,240,2012-11-26 17:54:00
1:54 PM,60.1,24.1,25,30.14,10.0,WSW,9.2,-,N/A,,Clear,250,2012-11-26 18:54:00
2:54 PM,60.1,25.0,26,30.13,10.0,Variable,3.5,-,N/A,,Clear,0,2012-11-26 19:54:00
3:54 PM,60.1,26.1,27,30.14,10.0,Calm,Calm,-,N/A,,Clear,0,2012-11-26 20:54:00
4:54 PM,54.0,28.0,37,30.15,10.0,Calm,Calm,-,N/A,,Mostly Cloudy,0,2012-11-26 21:54:00
5:54 PM,53.1,27.0,37,30.16,10.0,Calm,Calm,-,N/A,,Overcast,0,2012-11-26 22:54:00
6:54 PM,48.9,27.0,43,30.17,10.0,Calm,Calm,-,N/A,,Mostly Cloudy,0,2012-11-26 23:54:00
7:54 PM,46.9,30.9,54,30.17,10.0,Calm,Calm,-,N/A,,Overcast,0,2012-11-27 00:54:00
8:54 PM,50.0,28.9,44,30.17,10.0,Calm,Calm,-,N/A,,Overcast,0,2012-11-27 01:54:00
9:54 PM,48.0,34.0,58,30.17,10.0,Calm,Calm,-,N/A,,Overcast,0,2012-11-27 02:54:00
10:54 PM,44.1,30.9,60,30.16,10.0,Calm,Calm,-,N/A,,Overcast,0,2012-11-27 03:54:00
11:54 PM,46.9,30.9,54,30.16,10.0,Calm,Calm,-,N/A,,Overcast,0,2012-11-27 04:54:00